Regional Weather Roundup
Issued by NWS State College, PA

Home | Current Version | Previous Version | Text Only | Print | Product List | Glossary On
Versions: 1 2 3 4 5 6 7 8 9 10 11 12 13 14 15 16 17 18 19 20 21 22 23 24 25 26 27 28 29 30 31 32 33 34 35 36 37 38 39 40 41 42 43 44 45 46 47 48 49 50
000
ASUS41 KCTP 302110
RWRCTP

REGIONAL WEATHER ROUNDUP
NATIONAL WEATHER SERVICE STATE COLLEGE PA
500 PM EDT MON MAY 30 2016

Note: "fair" indicates few or no clouds below 12,000 feet with no
significant weather and/or obstructions to visibility.

* = STATION THAT DOES NOT REPORT PRECIPITATION /E.G. RAIN...SNOW...ETC/
    THUNDER OR FOG.

PAZ002>004-007>009-013>016-020>023-029>032-302200-
WESTERN PENNSYLVANIA

CITY           SKY/WX    TMP DP  RH WIND       PRES   REMARKS
ERIE           SUNNY     80  56  43 W8        29.98F
MEADVILLE      MOSUNNY   76  54  46 NW8       30.00F
FRANKLIN*      SUNNY     79  54  41 NW6       30.02F
NEW CASTLE     MOCLDY    82  57  42 NW8       29.99F
BEAVER COUNTY  NOT AVBL
BUTLER*        SUNNY     79  59  50 N6        30.02F
PITTSBURGH INT MOSUNNY   83  55  38 NW13G22   29.98F
PITTSBURGH     MOSUNNY   82  56  40 NW9G18    29.97F
INDIANA*       SUNNY     82  61  47 NW10G16   30.01S
LATROBE        MOSUNNY   81  59  47 VRB7      29.98S
WASHINGTON CO* SUNNY     81  61  50 NW5       30.00S
$$

PAZ004>006-010>012-017>019-024>028-033>037-041-042-045-046-049>053-302200-
CENTRAL PENNSYLVANIA

CITY           SKY/WX    TMP DP  RH WIND       PRES   REMARKS
BRADFORD       SUNNY     78  50  37 W12       30.01S
DUBOIS         MOSUNNY   79  54  41 W10       29.98F
CLEARFIELD     SUNNY     83  55  38 W12       29.97S
JOHNSTOWN      MOSUNNY   78  55  44 NW10      30.01S
ALTOONA        PTSUNNY   83  57  41 NW10      29.96F
STATE COLLEGE  PTSUNNY   82  59  44 W9        29.94F
WILLIAMSPORT   CLOUDY    78  62  57 CALM      29.90S
SELINSGROVE    HVY RAIN  68  63  84 N12       29.96R VSB 1
FT INDIANTOWN  SUNNY     84  63  49 S10       29.92S
CAPITAL CITY   SUNNY     85  60  42 S9        29.92S
HARRISBURG     PTSUNNY   85  63  47 VRB5      29.91F
YORK           MOSUNNY   83  63  50 VRB3      29.93F
$$

PAZ038>040-043-044-047-048-054-055-060>062-067>071-302200-
EASTERN PENNSYLVANIA

CITY           SKY/WX    TMP DP  RH WIND       PRES   REMARKS
SCRANTON       CLOUDY    79  61  53 N10       29.93R
MOUNT POCONO   PTSUNNY   75  63  66 S10       29.98S
ALLENTOWN      PTSUNNY   85  63  47 SW7       29.92F
QUAKERTOWN*    CLOUDY    84  63  48 SW7       29.94F
READING        MOSUNNY   85  60  42 S12       29.92F
LANCASTER      MOSUNNY   84  60  44 VRB6      29.93S
COATESVILLE    CLOUDY    77  66  69 VRB5      29.97S
POTTSTOWN      CLOUDY    82  65  56 MISG      29.95S
BLUE BELL      CLOUDY    75  68  78 S6        29.94S
DOYLESTOWN     CLOUDY    77  65  66 VRB7      29.93F
WILLOW GROVE   NOT AVBL
NORTH PHILA    CLOUDY    78  68  71 S7        29.95F
PHILADELPHIA   CLOUDY    77  67  71 S10       29.95S
$$



USA.gov is the U.S. government's official web portal to all federal, state and local government web resources and services.